| time (UTC) | temp F | wind direction | speed MPH | gust MPH | rain 1hr in | rain 24hr in | rain mn in | humidity % | barometer mb |
| 20260509054037 | 66 | 81 | 1.0 | 9.0 | 0.00 | 0.00 | 0.00 | 63 | 1022.5 |
| 20260509053538 | 66 | 71 | 2.0 | 9.0 | 0.00 | 0.00 | 0.00 | 62 | 1022.5 |
| 20260509053038 | 66 | 82 | 3.0 | 8.0 | 0.00 | 0.00 | 0.00 | 63 | 1022.4 |
| 20260509052538 | 66 | 94 | 2.0 | 7.0 | 0.00 | 0.00 | 0.00 | 62 | 1022.4 |
| 20260509052037 | 67 | 89 | 1.0 | 10.0 | 0.00 | 0.00 | 0.00 | 63 | 1022.4 |
| 20260509051539 | 67 | 154 | 3.0 | 10.0 | 0.00 | 0.00 | 0.00 | 61 | 1022.4 |
| 20260509051042 | 67 | 37 | 2.0 | 7.0 | 0.00 | 0.00 | 0.00 | 62 | 1022.4 |
| 20260509050538 | 67 | 65 | 2.0 | 9.0 | 0.00 | 0.00 | 0.00 | 61 | 1022.3 |
| 20260509050047 | 67 | 59 | 3.0 | 9.0 | 0.00 | 0.00 | 0.00 | 61 | 1022.3 |
| 20260509045536 | 67 | 99 | 3.0 | 10.0 | 0.00 | 0.00 | 0.00 | 61 | 1022.4 |
| 20260509045037 | 67 | 99 | 3.0 | 10.0 | 0.00 | 0.00 | 0.00 | 60 | 1022.4 |
| 20260509044535 | 67 | 93 | 2.0 | 9.0 | 0.00 | 0.00 | 0.00 | 61 | 1022.4 |
| 20260509044036 | 67 | 91 | 2.0 | 9.0 | 0.00 | 0.00 | 0.00 | 61 | 1022.3 |
| 20260509043536 | 67 | 84 | 1.0 | 9.0 | 0.00 | 0.00 | 0.00 | 60 | 1022.3 |
| 20260509043037 | 68 | 86 | 3.0 | 7.0 | 0.00 | 0.00 | 0.00 | 60 | 1022.3 |
| 20260509042535 | 67 | 82 | 2.0 | 8.0 | 0.00 | 0.00 | 0.00 | 60 | 1022.2 |
| 20260509042038 | 67 | 86 | 3.0 | 8.0 | 0.00 | 0.00 | 0.00 | 60 | 1022.2 |
| 20260509041535 | 67 | 74 | 3.0 | 8.0 | 0.00 | 0.00 | 0.00 | 59 | 1022.2 |
| 20260509041035 | 68 | 96 | 2.0 | 7.0 | 0.00 | 0.00 | 0.00 | 59 | 1022.2 |
| 20260509040536 | 68 | 87 | 2.0 | 7.0 | 0.00 | 0.00 | 0.00 | 59 | 1022.2 |
| 20260509040034 | 68 | 66 | 2.0 | 5.0 | 0.00 | 0.00 | 0.00 | 60 | 1022.2 |
| 20260509035534 | 68 | 132 | 2.0 | 9.0 | 0.00 | 0.00 | 0.00 | 60 | 1022.2 |
| 20260509035036 | 68 | 82 | 3.0 | 11.0 | 0.00 | 0.00 | 0.00 | 59 | 1022.3 |
| 20260509034533 | 68 | 107 | 2.0 | 11.0 | 0.00 | 0.00 | 0.00 | 59 | 1022.2 |
| 20260509034033 | 68 | 76 | 2.0 | 7.0 | 0.00 | 0.00 | 0.00 | 59 | 1022.2 |
| 20260509033535 | 68 | 65 | 2.0 | 9.0 | 0.00 | 0.00 | 0.00 | 58 | 1022.3 |
| 20260509033032 | 69 | 63 | 3.0 | 9.0 | 0.00 | 0.00 | 0.00 | 56 | 1022.3 |
| 20260509032533 | 69 | 80 | 2.0 | 8.0 | 0.00 | 0.00 | 0.00 | 55 | 1022.3 |
| 20260509032032 | 69 | 88 | 1.0 | 10.0 | 0.00 | 0.00 | 0.00 | 56 | 1022.4 |
| 20260509031535 | 69 | 88 | 1.0 | 8.0 | 0.00 | 0.00 | 0.00 | 55 | 1022.4 |
| 20260509031032 | 69 | 124 | 2.0 | 6.0 | 0.00 | 0.00 | 0.00 | 55 | 1022.4 |
| 20260509030531 | 69 | 86 | 2.0 | 7.0 | 0.00 | 0.00 | 0.00 | 55 | 1022.4 |
| 20260509030037 | 70 | 40 | 2.0 | 6.0 | 0.00 | 0.00 | 0.00 | 52 | 1022.6 |
| 20260509025630 | 70 | 146 | 2.0 | 6.0 | 0.00 | 0.00 | 0.00 | 52 | 1022.6 |
| 20260509025030 | 69 | 92 | 2.0 | 6.0 | 0.00 | 0.00 | 0.00 | 50 | 1022.6 |
| 20260509024536 | 69 | 178 | 1.0 | 4.0 | 0.00 | 0.00 | 0.00 | 52 | 1022.7 |
| 20260509024027 | 69 | 99 | 1.0 | 7.0 | 0.00 | 0.00 | 0.00 | 53 | 1022.7 |
| 20260509023527 | 69 | 76 | 2.0 | 7.0 | 0.00 | 0.00 | 0.00 | 53 | 1022.8 |
| 20260509023026 | 69 | 146 | 2.0 | 7.0 | 0.00 | 0.00 | 0.00 | 51 | 1022.9 |
| 20260509022525 | 69 | 127 | 1.0 | 7.0 | 0.00 | 0.00 | 0.00 | 52 | 1023.0 |
| 20260509022024 | 69 | 137 | 2.0 | 8.0 | 0.00 | 0.00 | 0.00 | 52 | 1023.0 |
| 20260509021523 | 69 | 107 | 2.0 | 8.0 | 0.00 | 0.00 | 0.00 | 53 | 1023.1 |
| 20260509021022 | 68 | 144 | 1.0 | 7.0 | 0.00 | 0.00 | 0.00 | 53 | 1023.2 |
| 20260509020521 | 68 | 103 | 2.0 | 7.0 | 0.00 | 0.00 | 0.00 | 53 | 1023.2 |
| 20260509020020 | 68 | 217 | 2.0 | 6.0 | 0.00 | 0.00 | 0.00 | 53 | 1023.3 |
| 20260509015519 | 68 | 218 | 1.0 | 7.0 | 0.00 | 0.00 | 0.00 | 54 | 1023.3 |
| 20260509015018 | 67 | 157 | 3.0 | 7.0 | 0.00 | 0.00 | 0.00 | 55 | 1023.4 |
| 20260509014518 | 67 | 257 | 2.0 | 7.0 | 0.00 | 0.00 | 0.00 | 56 | 1023.4 |
| 20260509014016 | 67 | 185 | 3.0 | 8.0 | 0.00 | 0.00 | 0.00 | 55 | 1023.5 |
| 20260509013516 | 67 | 199 | 4.0 | 8.0 | 0.00 | 0.00 | 0.00 | 55 | 1023.6 |
| 20260509013023 | 67 | 182 | 2.0 | 7.0 | 0.00 | 0.00 | 0.00 | 56 | 1023.6 |
| 20260509012515 | 67 | 153 | 1.0 | 9.0 | 0.00 | 0.00 | 0.00 | 56 | 1023.7 |
| 20260509012013 | 66 | 215 | 3.0 | 9.0 | 0.00 | 0.00 | 0.00 | 55 | 1023.7 |
| 20260509011513 | 67 | 177 | 3.0 | 9.0 | 0.00 | 0.00 | 0.00 | 56 | 1023.8 |
| 20260509011016 | 66 | 123 | 2.0 | 9.0 | 0.00 | 0.00 | 0.00 | 57 | 1023.7 |
| 20260509010509 | 66 | 192 | 3.0 | 8.0 | 0.00 | 0.00 | 0.00 | 57 | 1023.8 |
| 20260509010014 | 66 | 145 | 2.0 | 7.0 | 0.00 | 0.00 | 0.00 | 58 | 1023.8 |
| 20260509005509 | 66 | 143 | 2.0 | 7.0 | 0.00 | 0.00 | 0.00 | 57 | 1024.0 |
| 20260509005006 | 66 | 165 | 2.0 | 7.0 | 0.00 | 0.00 | 0.00 | 58 | 1024.0 |
| 20260509004505 | 65 | 209 | 3.0 | 7.0 | 0.00 | 0.00 | 0.00 | 59 | 1024.0 |
| 20260509004004 | 65 | 216 | 2.0 | 8.0 | 0.00 | 0.00 | 0.00 | 59 | 1024.1 |
| 20260509003503 | 65 | 157 | 3.0 | 8.0 | 0.00 | 0.00 | 0.00 | 59 | 1024.1 |
| 20260509003002 | 64 | 139 | 3.0 | 8.0 | 0.00 | 0.00 | 0.00 | 60 | 1024.1 |
| 20260509002501 | 64 | 194 | 4.0 | 7.0 | 0.00 | 0.00 | 0.00 | 59 | 1024.1 |
| 20260509002001 | 65 | 172 | 3.0 | 8.0 | 0.00 | 0.00 | 0.00 | 60 | 1024.2 |
| 20260509001600 | 64 | 210 | 3.0 | 8.0 | 0.00 | 0.00 | 0.00 | 61 | 1024.2 |
| 20260509001058 | 64 | 203 | 3.0 | 7.0 | 0.00 | 0.00 | 0.00 | 61 | 1024.2 |
| 20260509000558 | 64 | 120 | 2.0 | 7.0 | 0.00 | 0.00 | 0.00 | 62 | 1024.2 |
| 20260509000108 | 64 | 138 | 2.0 | 5.0 | 0.00 | 0.00 | 0.00 | 63 | 1024.2 |
| 20260508235557 | 63 | 154 | 2.0 | 7.0 | 0.00 | 0.00 | 0.00 | 64 | 1024.3 |
| 20260508235056 | 63 | 196 | 2.0 | 7.0 | 0.00 | 0.00 | 0.00 | 64 | 1024.3 |
| 20260508234556 | 63 | 196 | 2.0 | 5.0 | 0.00 | 0.00 | 0.00 | 65 | 1024.3 |
| 20260508234051 | 62 | 221 | 2.0 | 5.0 | 0.00 | 0.00 | 0.00 | 66 | 1024.3 |
| 20260508233550 | 62 | 207 | 2.0 | 4.0 | 0.00 | 0.00 | 0.00 | 67 | 1024.3 |
| 20260508233050 | 62 | 281 | 1.0 | 7.0 | 0.00 | 0.00 | 0.00 | 67 | 1024.3 |
| 20260508232547 | 61 | 250 | 3.0 | 7.0 | 0.00 | 0.00 | 0.00 | 67 | 1024.2 |
| 20260508232046 | 61 | 275 | 2.0 | 7.0 | 0.00 | 0.00 | 0.00 | 67 | 1024.2 |
| 20260508231550 | 61 | 256 | 2.0 | 7.0 | 0.00 | 0.00 | 0.00 | 68 | 1024.2 |
| 20260508231045 | 60 | 259 | 3.0 | 7.0 | 0.00 | 0.00 | 0.00 | 67 | 1024.2 |
| 20260508230544 | 60 | 229 | 3.0 | 5.0 | 0.00 | 0.00 | 0.00 | 68 | 1024.2 |
| 20260508230043 | 60 | 246 | 3.0 | 8.0 | 0.00 | 0.00 | 0.00 | 68 | 1024.2 |
| 20260508225542 | 60 | 268 | 3.0 | 8.0 | 0.00 | 0.00 | 0.00 | 68 | 1024.3 |
| 20260508225041 | 59 | 244 | 2.0 | 5.0 | 0.00 | 0.00 | 0.00 | 69 | 1024.2 |
| 20260508224540 | 59 | 236 | 3.0 | 5.0 | 0.00 | 0.00 | 0.00 | 70 | 1024.2 |
| 20260508224037 | 59 | 285 | 3.0 | 7.0 | 0.00 | 0.00 | 0.00 | 71 | 1024.1 |
| 20260508223537 | 58 | 260 | 3.0 | 7.0 | 0.00 | 0.00 | 0.00 | 71 | 1024.1 |
| 20260508223037 | 58 | 304 | 3.0 | 6.0 | 0.00 | 0.00 | 0.00 | 72 | 1024.1 |
| 20260508222533 | 57 | 272 | 3.0 | 6.0 | 0.00 | 0.00 | 0.00 | 72 | 1024.0 |
| 20260508222032 | 57 | 254 | 2.0 | 6.0 | 0.00 | 0.00 | 0.00 | 74 | 1024.0 |
| 20260508221536 | 56 | 266 | 2.0 | 6.0 | 0.00 | 0.00 | 0.00 | 74 | 1023.9 |
| 20260508221033 | 56 | 268 | 2.0 | 4.0 | 0.00 | 0.00 | 0.00 | 74 | 1023.9 |
| 20260508220532 | 55 | 299 | 2.0 | 5.0 | 0.00 | 0.00 | 0.00 | 74 | 1023.9 |
| 20260508220036 | 55 | 272 | 2.0 | 4.0 | 0.00 | 0.00 | 0.00 | 75 | 1023.7 |
| 20260508215529 | 55 | 280 | 2.0 | 4.0 | 0.00 | 0.00 | 0.00 | 75 | 1023.7 |
| 20260508215029 | 54 | 315 | 2.0 | 4.0 | 0.00 | 0.00 | 0.00 | 76 | 1023.7 |
| 20260508214528 | 54 | 280 | 2.0 | 4.0 | 0.00 | 0.00 | 0.00 | 76 | 1023.7 |
| 20260508214027 | 54 | 298 | 2.0 | 4.0 | 0.00 | 0.00 | 0.00 | 76 | 1023.6 |
| 20260508213526 | 53 | 293 | 2.0 | 4.0 | 0.00 | 0.00 | 0.00 | 77 | 1023.5 |
| 20260508213033 | 53 | 286 | 2.0 | 4.0 | 0.00 | 0.00 | 0.00 | 77 | 1023.5 |
| 20260508212526 | 53 | 302 | 2.0 | 4.0 | 0.00 | 0.00 | 0.00 | 77 | 1023.5 |
| 20260508212028 | 53 | 306 | 2.0 | 4.0 | 0.00 | 0.00 | 0.00 | 77 | 1023.4 |
| 20260508211526 | 53 | 315 | 2.0 | 5.0 | 0.00 | 0.00 | 0.00 | 77 | 1023.3 |
| 20260508211024 | 53 | 311 | 2.0 | 4.0 | 0.00 | 0.00 | 0.00 | 77 | 1023.2 |
| 20260508210523 | 53 | 296 | 2.0 | 3.0 | 0.00 | 0.00 | 0.00 | 77 | 1023.2 |
| 20260508210022 | 53 | 263 | 1.0 | 3.0 | 0.00 | 0.00 | 0.00 | 77 | 1023.1 |
| 20260508205521 | 53 | 284 | 1.0 | 3.0 | 0.00 | 0.00 | 0.00 | 77 | 1023.0 |
| 20260508205022 | 53 | 286 | 1.0 | 3.0 | 0.00 | 0.00 | 0.00 | 79 | 1022.9 |
| 20260508204521 | 53 | 286 | 1.0 | 3.0 | 0.00 | 0.00 | 0.00 | 79 | 1022.8 |
| 20260508204017 | 53 | 286 | 1.0 | 3.0 | 0.00 | 0.00 | 0.00 | 79 | 1022.8 |
| 20260508203517 | 53 | 214 | 1.0 | 2.0 | 0.00 | 0.00 | 0.00 | 79 | 1022.8 |
| 20260508203017 | 53 | 213 | 0.0 | 2.0 | 0.00 | 0.00 | 0.00 | 78 | 1022.7 |
| 20260508202515 | 53 | 213 | 0.0 | 2.0 | 0.00 | 0.00 | 0.00 | 77 | 1022.7 |
| 20260508202015 | 53 | 213 | 0.0 | 2.0 | 0.00 | 0.00 | 0.00 | 77 | 1022.6 |
| 20260508201516 | 54 | 213 | 0.0 | 2.0 | 0.00 | 0.00 | 0.00 | 77 | 1022.6 |
| 20260508201014 | 53 | 213 | 0.0 | 2.0 | 0.00 | 0.00 | 0.00 | 77 | 1022.5 |
| 20260508200515 | 53 | 213 | 0.0 | 1.0 | 0.00 | 0.00 | 0.00 | 77 | 1022.5 |
| 20260508200013 | 54 | 213 | 0.0 | 1.0 | 0.00 | 0.00 | 0.00 | 76 | 1022.4 |
| 20260508195513 | 54 | 213 | 0.0 | 1.0 | 0.00 | 0.00 | 0.00 | 76 | 1022.4 |
| 20260508195011 | 54 | 213 | 0.0 | 1.0 | 0.00 | 0.00 | 0.00 | 76 | 1022.3 |
| 20260508194512 | 54 | 213 | 0.0 | 1.0 | 0.00 | 0.00 | 0.00 | 76 | 1022.2 |
| 20260508194009 | 54 | 213 | 0.0 | 3.0 | 0.00 | 0.00 | 0.00 | 75 | 1022.1 |
| 20260508193508 | 54 | 213 | 0.0 | 3.0 | 0.00 | 0.00 | 0.00 | 75 | 1022.0 |
| 20260508193008 | 54 | 213 | 0.0 | 3.0 | 0.00 | 0.00 | 0.00 | 75 | 1022.0 |
| 20260508192508 | 54 | 270 | 1.0 | 2.0 | 0.00 | 0.00 | 0.00 | 74 | 1021.9 |
| 20260508192010 | 54 | 271 | 0.0 | 2.0 | 0.00 | 0.00 | 0.00 | 74 | 1021.9 |
| 20260508191507 | 54 | 271 | 0.0 | 3.0 | 0.00 | 0.00 | 0.00 | 74 | 1021.9 |
| 20260508191006 | 54 | 273 | 1.0 | 3.0 | 0.00 | 0.00 | 0.00 | 74 | 1021.9 |
| 20260508190506 | 54 | 273 | 1.0 | 3.0 | 0.00 | 0.00 | 0.00 | 74 | 1021.8 |
| 20260508190006 | 54 | 276 | 1.0 | 2.0 | 0.00 | 0.00 | 0.00 | 74 | 1021.8 |
| 20260508185505 | 54 | 276 | 1.0 | 2.0 | 0.00 | 0.00 | 0.00 | 74 | 1021.8 |
| 20260508185005 | 54 | 276 | 1.0 | 2.0 | 0.00 | 0.00 | 0.00 | 73 | 1021.8 |
| 20260508184504 | 55 | 276 | 1.0 | 3.0 | 0.00 | 0.00 | 0.00 | 73 | 1021.7 |
| 20260508184003 | 55 | 278 | 1.0 | 4.0 | 0.00 | 0.00 | 0.00 | 73 | 1021.7 |
| 20260508183503 | 55 | 290 | 2.0 | 4.0 | 0.00 | 0.00 | 0.00 | 73 | 1021.7 |
| 20260508183004 | 55 | 280 | 2.0 | 4.0 | 0.00 | 0.00 | 0.00 | 73 | 1021.7 |
| 20260508182504 | 55 | 258 | 2.0 | 4.0 | 0.00 | 0.00 | 0.00 | 73 | 1021.7 |
| 20260508182003 | 55 | 286 | 2.0 | 4.0 | 0.00 | 0.00 | 0.00 | 73 | 1021.7 |
| 20260508181506 | 55 | 286 | 2.0 | 3.0 | 0.00 | 0.00 | 0.00 | 73 | 1021.7 |
| 20260508181002 | 55 | 287 | 1.0 | 3.0 | 0.00 | 0.00 | 0.00 | 72 | 1021.7 |
| 20260508180503 | 55 | 287 | 1.0 | 3.0 | 0.00 | 0.00 | 0.00 | 72 | 1021.6 |
| 20260508180005 | 55 | 287 | 1.0 | 4.0 | 0.00 | 0.00 | 0.00 | 72 | 1021.5 |
| 20260508175501 | 55 | 287 | 1.0 | 4.0 | 0.00 | 0.00 | 0.00 | 71 | 1021.6 |
| 20260508175101 | 55 | 287 | 2.0 | 3.0 | 0.00 | 0.00 | 0.00 | 71 | 1021.6 |
| 20260508174609 | 55 | 288 | 2.0 | 4.0 | 0.00 | 0.00 | 0.00 | 71 | 1021.5 |
| 20260508174101 | 55 | 283 | 2.0 | 5.0 | 0.00 | 0.00 | 0.00 | 71 | 1021.5 |
| 20260508173559 | 55 | 279 | 3.0 | 5.0 | 0.00 | 0.00 | 0.00 | 72 | 1021.4 |
| 20260508173058 | 55 | 284 | 2.0 | 4.0 | 0.00 | 0.00 | 0.00 | 72 | 1021.4 |
| 20260508172558 | 55 | 275 | 2.0 | 4.0 | 0.00 | 0.00 | 0.00 | 72 | 1021.5 |
| 20260508172058 | 55 | 273 | 2.0 | 4.0 | 0.00 | 0.00 | 0.00 | 73 | 1021.4 |
| 20260508171558 | 55 | 279 | 2.0 | 4.0 | 0.00 | 0.00 | 0.00 | 74 | 1021.4 |
| 20260508171057 | 55 | 280 | 2.0 | 3.0 | 0.00 | 0.00 | 0.00 | 73 | 1021.4 |
| 20260508170557 | 55 | 290 | 1.0 | 4.0 | 0.00 | 0.00 | 0.00 | 73 | 1021.4 |
| 20260508170058 | 55 | 277 | 1.0 | 4.0 | 0.00 | 0.00 | 0.00 | 72 | 1021.3 |
| 20260508165556 | 55 | 248 | 1.0 | 3.0 | 0.00 | 0.00 | 0.00 | 71 | 1021.3 |
| 20260508165056 | 55 | 243 | 2.0 | 4.0 | 0.00 | 0.00 | 0.00 | 70 | 1021.3 |
| 20260508164558 | 55 | 286 | 2.0 | 4.0 | 0.00 | 0.00 | 0.00 | 70 | 1021.2 |
| 20260508164056 | 55 | 265 | 2.0 | 5.0 | 0.00 | 0.00 | 0.00 | 70 | 1021.4 |
| 20260508163600 | 55 | 269 | 2.0 | 5.0 | 0.00 | 0.00 | 0.00 | 70 | 1021.4 |
| 20260508163055 | 55 | 279 | 3.0 | 6.0 | 0.00 | 0.00 | 0.00 | 71 | 1021.4 |
| 20260508162556 | 55 | 285 | 2.0 | 5.0 | 0.00 | 0.00 | 0.00 | 71 | 1021.4 |
| 20260508162055 | 55 | 277 | 2.0 | 4.0 | 0.00 | 0.00 | 0.00 | 71 | 1021.4 |
| 20260508161554 | 55 | 248 | 3.0 | 4.0 | 0.00 | 0.00 | 0.00 | 72 | 1021.4 |
| 20260508161054 | 55 | 281 | 2.0 | 4.0 | 0.00 | 0.00 | 0.00 | 72 | 1021.4 |
| 20260508160552 | 55 | 309 | 2.0 | 4.0 | 0.00 | 0.00 | 0.00 | 71 | 1021.4 |
| 20260508160052 | 55 | 317 | 2.0 | 4.0 | 0.00 | 0.00 | 0.00 | 71 | 1021.4 |
| 20260508155551 | 55 | 300 | 2.0 | 4.0 | 0.00 | 0.00 | 0.00 | 70 | 1021.3 |
| 20260508155050 | 55 | 309 | 2.0 | 4.0 | 0.00 | 0.00 | 0.00 | 70 | 1021.3 |
| 20260508154554 | 56 | 294 | 2.0 | 4.0 | 0.00 | 0.00 | 0.00 | 69 | 1021.3 |
| 20260508154051 | 56 | 277 | 2.0 | 6.0 | 0.00 | 0.00 | 0.00 | 68 | 1021.3 |
| 20260508153547 | 56 | 307 | 3.0 | 5.0 | 0.00 | 0.00 | 0.00 | 68 | 1021.3 |
| 20260508153047 | 56 | 283 | 3.0 | 7.0 | 0.00 | 0.00 | 0.00 | 68 | 1021.2 |
| 20260508152546 | 56 | 282 | 3.0 | 7.0 | 0.00 | 0.00 | 0.00 | 68 | 1021.3 |
| 20260508152046 | 56 | 302 | 2.0 | 4.0 | 0.00 | 0.00 | 0.00 | 68 | 1021.2 |
| 20260508151546 | 56 | 283 | 2.0 | 4.0 | 0.00 | 0.00 | 0.00 | 68 | 1021.3 |
| 20260508151047 | 56 | 282 | 1.0 | 3.0 | 0.00 | 0.00 | 0.00 | 68 | 1021.3 |
| 20260508150545 | 56 | 267 | 1.0 | 3.0 | 0.00 | 0.00 | 0.00 | 68 | 1021.3 |
| 20260508150045 | 56 | 264 | 0.0 | 2.0 | 0.00 | 0.00 | 0.00 | 68 | 1021.3 |
| 20260508145545 | 56 | 264 | 1.0 | 2.0 | 0.00 | 0.00 | 0.00 | 68 | 1021.3 |
| 20260508145047 | 56 | 264 | 1.0 | 3.0 | 0.00 | 0.00 | 0.00 | 67 | 1021.3 |
| 20260508144544 | 56 | 264 | 1.0 | 3.0 | 0.00 | 0.00 | 0.00 | 67 | 1021.2 |
| 20260508144044 | 56 | 256 | 1.0 | 4.0 | 0.00 | 0.00 | 0.00 | 67 | 1021.2 |
| 20260508143545 | 56 | 298 | 2.0 | 4.0 | 0.00 | 0.00 | 0.00 | 67 | 1021.1 |
| 20260508143043 | 56 | 236 | 1.0 | 5.0 | 0.00 | 0.00 | 0.00 | 67 | 1021.1 |
| 20260508142542 | 56 | 267 | 2.0 | 7.0 | 0.00 | 0.00 | 0.00 | 68 | 1021.1 |
| 20260508142042 | 56 | 249 | 2.0 | 7.0 | 0.00 | 0.00 | 0.00 | 68 | 1021.1 |
| 20260508141549 | 56 | 260 | 2.0 | 5.0 | 0.00 | 0.00 | 0.00 | 68 | 1021.1 |
| 20260508141040 | 56 | 259 | 2.0 | 5.0 | 0.00 | 0.00 | 0.00 | 68 | 1021.0 |
| 20260508140543 | 56 | 267 | 1.0 | 5.0 | 0.00 | 0.00 | 0.00 | 68 | 1021.0 |
| 20260508140049 | 56 | 286 | 2.0 | 4.0 | 0.00 | 0.00 | 0.00 | 69 | 1021.0 |
| 20260508135541 | 56 | 287 | 2.0 | 4.0 | 0.00 | 0.00 | 0.00 | 69 | 1021.0 |
| 20260508135038 | 56 | 263 | 1.0 | 4.0 | 0.00 | 0.00 | 0.00 | 69 | 1021.0 |
| 20260508134538 | 56 | 274 | 1.0 | 4.0 | 0.00 | 0.00 | 0.00 | 70 | 1021.0 |
| 20260508134038 | 56 | 277 | 2.0 | 5.0 | 0.00 | 0.00 | 0.00 | 70 | 1021.0 |
| 20260508133538 | 56 | 266 | 2.0 | 6.0 | 0.00 | 0.00 | 0.00 | 70 | 1020.9 |
| 20260508133038 | 56 | 275 | 2.0 | 6.0 | 0.00 | 0.00 | 0.00 | 69 | 1021.0 |
| 20260508132538 | 56 | 240 | 1.0 | 6.0 | 0.00 | 0.00 | 0.00 | 68 | 1021.0 |
| 20260508132037 | 57 | 306 | 1.0 | 4.0 | 0.00 | 0.00 | 0.00 | 68 | 1020.9 |
| 20260508131537 | 57 | 216 | 1.0 | 4.0 | 0.00 | 0.00 | 0.00 | 68 | 1020.9 |
| 20260508131038 | 56 | 205 | 1.0 | 5.0 | 0.00 | 0.00 | 0.00 | 68 | 1021.0 |
| 20260508130537 | 56 | 196 | 2.0 | 5.0 | 0.00 | 0.00 | 0.00 | 69 | 1020.9 |
| 20260508130039 | 56 | 289 | 1.0 | 4.0 | 0.00 | 0.00 | 0.00 | 70 | 1020.9 |
| 20260508125537 | 56 | 226 | 1.0 | 3.0 | 0.00 | 0.00 | 0.00 | 69 | 1021.0 |
| 20260508125037 | 56 | 267 | 1.0 | 3.0 | 0.00 | 0.00 | 0.00 | 69 | 1021.0 |
| 20260508124536 | 57 | 273 | 1.0 | 4.0 | 0.00 | 0.00 | 0.00 | 68 | 1020.9 |
| 20260508124035 | 57 | 237 | 1.0 | 6.0 | 0.00 | 0.00 | 0.00 | 67 | 1021.0 |
| 20260508123538 | 57 | 257 | 2.0 | 6.0 | 0.00 | 0.00 | 0.00 | 67 | 1021.0 |
| 20260508123036 | 57 | 277 | 2.0 | 6.0 | 0.00 | 0.00 | 0.00 | 67 | 1021.0 |
| 20260508122534 | 57 | 267 | 2.0 | 5.0 | 0.00 | 0.00 | 0.00 | 66 | 1021.0 |
| 20260508122037 | 57 | 267 | 2.0 | 7.0 | 0.00 | 0.00 | 0.00 | 66 | 1020.9 |
| 20260508121535 | 57 | 279 | 2.0 | 4.0 | 0.00 | 0.00 | 0.00 | 66 | 1021.0 |
| 20260508121034 | 57 | 263 | 1.0 | 4.0 | 0.00 | 0.00 | 0.00 | 66 | 1021.0 |
| 20260508120535 | 57 | 262 | 2.0 | 4.0 | 0.00 | 0.00 | 0.00 | 66 | 1021.0 |
| 20260508120038 | 57 | 271 | 2.0 | 4.0 | 0.00 | 0.00 | 0.00 | 65 | 1021.0 |
| 20260508115533 | 57 | 272 | 1.0 | 5.0 | 0.00 | 0.00 | 0.00 | 65 | 1021.0 |
| 20260508115034 | 58 | 254 | 2.0 | 5.0 | 0.00 | 0.00 | 0.00 | 64 | 1020.9 |
| 20260508114533 | 58 | 266 | 2.0 | 7.0 | 0.00 | 0.00 | 0.00 | 64 | 1020.9 |
| 20260508114033 | 58 | 262 | 3.0 | 7.0 | 0.00 | 0.00 | 0.00 | 64 | 1020.8 |
| 20260508113533 | 57 | 268 | 3.0 | 7.0 | 0.00 | 0.00 | 0.00 | 66 | 1020.7 |
| 20260508113033 | 58 | 279 | 4.0 | 7.0 | 0.00 | 0.00 | 0.00 | 66 | 1020.7 |
| 20260508112532 | 58 | 231 | 3.0 | 7.0 | 0.00 | 0.00 | 0.00 | 65 | 1020.7 |
| 20260508112032 | 58 | 251 | 3.0 | 7.0 | 0.00 | 0.00 | 0.00 | 65 | 1020.8 |
| 20260508111548 | 58 | 247 | 1.0 | 7.0 | 0.00 | 0.00 | 0.00 | 65 | 1020.9 |
| 20260508111034 | 58 | 234 | 2.0 | 7.0 | 0.00 | 0.00 | 0.00 | 64 | 1020.9 |
| 20260508110535 | 58 | 212 | 1.0 | 5.0 | 0.00 | 0.00 | 0.00 | 64 | 1020.9 |
| 20260508110031 | 58 | 185 | 2.0 | 5.0 | 0.00 | 0.00 | 0.00 | 63 | 1020.8 |
| 20260508105530 | 58 | 171 | 1.0 | 5.0 | 0.00 | 0.00 | 0.00 | 63 | 1020.8 |
| 20260508105028 | 58 | 202 | 2.0 | 5.0 | 0.00 | 0.00 | 0.00 | 63 | 1020.7 |
| 20260508104529 | 58 | 218 | 1.0 | 4.0 | 0.00 | 0.00 | 0.00 | 63 | 1020.6 |
| 20260508104028 | 59 | 159 | 1.0 | 5.0 | 0.00 | 0.00 | 0.00 | 63 | 1020.6 |
| 20260508103528 | 59 | 242 | 1.0 | 5.0 | 0.00 | 0.00 | 0.00 | 63 | 1020.5 |
| 20260508103032 | 59 | 256 | 1.0 | 7.0 | 0.00 | 0.00 | 0.00 | 63 | 1020.4 |
| 20260508102529 | 59 | 180 | 2.0 | 7.0 | 0.00 | 0.00 | 0.00 | 62 | 1020.4 |
| 20260508102027 | 59 | 205 | 2.0 | 7.0 | 0.00 | 0.00 | 0.00 | 62 | 1020.3 |
| 20260508101534 | 59 | 209 | 2.0 | 8.0 | 0.00 | 0.00 | 0.00 | 62 | 1020.4 |
| 20260508101027 | 59 | 157 | 2.0 | 9.0 | 0.00 | 0.00 | 0.00 | 62 | 1020.2 |
| 20260508100525 | 60 | 204 | 1.0 | 4.0 | 0.00 | 0.00 | 0.00 | 61 | 1020.2 |
| 20260508100028 | 60 | 210 | 1.0 | 5.0 | 0.00 | 0.00 | 0.00 | 61 | 1020.1 |
| 20260508095524 | 60 | 225 | 2.0 | 5.0 | 0.00 | 0.00 | 0.00 | 61 | 1020.1 |
| 20260508095023 | 60 | 266 | 2.0 | 10.0 | 0.00 | 0.00 | 0.00 | 60 | 1020.0 |
| 20260508094522 | 60 | 216 | 2.0 | 10.0 | 0.00 | 0.00 | 0.00 | 60 | 1019.9 |
| 20260508094021 | 60 | 187 | 2.0 | 10.0 | 0.00 | 0.00 | 0.00 | 60 | 1019.8 |
| 20260508093521 | 60 | 252 | 1.0 | 9.0 | 0.00 | 0.00 | 0.00 | 60 | 1019.7 |
| 20260508093020 | 60 | 221 | 3.0 | 9.0 | 0.00 | 0.00 | 0.00 | 59 | 1019.7 |
| 20260508092520 | 60 | 252 | 3.0 | 9.0 | 0.00 | 0.00 | 0.00 | 59 | 1019.5 |
| 20260508092019 | 60 | 259 | 2.0 | 7.0 | 0.00 | 0.00 | 0.00 | 59 | 1019.5 |
| 20260508091519 | 60 | 195 | 2.0 | 7.0 | 0.00 | 0.00 | 0.00 | 60 | 1019.5 |
| 20260508091018 | 61 | 271 | 1.0 | 4.0 | 0.00 | 0.00 | 0.00 | 59 | 1019.5 |
| 20260508090518 | 61 | 227 | 1.0 | 6.0 | 0.00 | 0.00 | 0.00 | 58 | 1019.4 |
| 20260508090018 | 61 | 198 | 2.0 | 7.0 | 0.00 | 0.00 | 0.00 | 58 | 1019.3 |
| 20260508085517 | 61 | 186 | 2.0 | 7.0 | 0.00 | 0.00 | 0.00 | 58 | 1019.2 |
| 20260508085016 | 62 | 209 | 1.0 | 5.0 | 0.00 | 0.00 | 0.00 | 58 | 1019.1 |
| 20260508084515 | 62 | 206 | 2.0 | 6.0 | 0.00 | 0.00 | 0.00 | 58 | 1019.1 |
| 20260508084018 | 62 | 257 | 2.0 | 6.0 | 0.00 | 0.00 | 0.00 | 57 | 1019.0 |
| 20260508083515 | 62 | 298 | 2.0 | 6.0 | 0.00 | 0.00 | 0.00 | 57 | 1018.9 |
| 20260508083014 | 62 | 254 | 1.0 | 6.0 | 0.00 | 0.00 | 0.00 | 57 | 1018.7 |
| 20260508082514 | 63 | 256 | 1.0 | 4.0 | 0.00 | 0.00 | 0.00 | 56 | 1018.6 |
| 20260508082014 | 63 | 259 | 1.0 | 6.0 | 0.00 | 0.00 | 0.00 | 55 | 1018.5 |
| 20260508081514 | 63 | 173 | 1.0 | 6.0 | 0.00 | 0.00 | 0.00 | 55 | 1018.4 |
| 20260508081014 | 63 | 249 | 1.0 | 5.0 | 0.00 | 0.00 | 0.00 | 54 | 1018.3 |
| 20260508080513 | 63 | 222 | 0.0 | 3.0 | 0.00 | 0.00 | 0.00 | 54 | 1018.2 |
| 20260508080013 | 64 | 257 | 1.0 | 5.0 | 0.00 | 0.00 | 0.00 | 54 | 1018.0 |
| 20260508075513 | 64 | 160 | 1.0 | 6.0 | 0.00 | 0.00 | 0.00 | 53 | 1018.0 |
| 20260508075014 | 64 | 175 | 1.0 | 11.0 | 0.00 | 0.00 | 0.00 | 51 | 1017.8 |
| 20260508074513 | 64 | 186 | 2.0 | 11.0 | 0.00 | 0.00 | 0.00 | 51 | 1017.7 |
| 20260508074012 | 64 | 190 | 3.0 | 11.0 | 0.00 | 0.00 | 0.00 | 51 | 1017.6 |
| 20260508073512 | 65 | 219 | 2.0 | 7.0 | 0.00 | 0.00 | 0.00 | 51 | 1017.5 |
| 20260508073013 | 65 | 175 | 2.0 | 6.0 | 0.00 | 0.00 | 0.00 | 51 | 1017.4 |
| 20260508072511 | 65 | 211 | 2.0 | 6.0 | 0.00 | 0.00 | 0.00 | 50 | 1017.3 |
| 20260508072012 | 65 | 209 | 2.0 | 6.0 | 0.00 | 0.00 | 0.00 | 50 | 1017.3 |
| 20260508071511 | 0 | 0.0 | 0.0 | 0.00 | 0.00 | 0.00 | 1017.2 | ||
| 20260508071013 | 0 | 0.0 | 0.0 | 0.00 | 0.00 | 0.00 | 1017.0 | ||
| 20260508070510 | 0 | 0.0 | 0.0 | 0.00 | 0.00 | 0.00 | 1016.9 | ||
| 20260508070006 | 0 | 0.0 | 0.0 | 0.00 | 0.00 | 0.00 | 1016.8 | ||
| 20260508065505 | 0 | 0.0 | 0.0 | 0.00 | 0.00 | 0.00 | 1016.7 | ||
| 20260508065004 | 0 | 0.0 | 0.0 | 0.00 | 0.00 | 0.00 | 1016.7 | ||
| 20260508064504 | 0 | 0.0 | 0.0 | 0.00 | 0.00 | 0.00 | 1016.5 | ||
| 20260508064101 | 0 | 0.0 | 0.0 | 0.00 | 0.00 | 0.00 | 1016.5 | ||
| 20260508063600 | 0 | 0.0 | 0.0 | 0.00 | 0.00 | 0.00 | 1016.4 | ||
| 20260508063058 | 0 | 0.0 | 0.0 | 0.00 | 0.00 | 0.00 | 1016.1 | ||
| 20260508062557 | 69 | 207 | 2.0 | 6.0 | 0.00 | 0.00 | 0.00 | 43 | 1016.1 |
| 20260508062057 | 69 | 207 | 2.0 | 6.0 | 0.00 | 0.00 | 0.00 | 43 | 1016.0 |
| 20260508061558 | 69 | 207 | 2.0 | 6.0 | 0.00 | 0.00 | 0.00 | 43 | 1015.9 |
| 20260508061056 | 69 | 183 | 3.0 | 11.0 | 0.00 | 0.00 | 0.00 | 43 | 1015.8 |
| 20260508060557 | 69 | 188 | 4.0 | 11.0 | 0.00 | 0.00 | 0.00 | 42 | 1015.9 |
| 20260508060056 | 69 | 252 | 3.0 | 12.0 | 0.00 | 0.00 | 0.00 | 41 | 1015.8 |
| 20260508055558 | 69 | 226 | 4.0 | 12.0 | 0.00 | 0.00 | 0.00 | 42 | 1015.7 |
| 20260508055056 | 69 | 221 | 2.0 | 9.0 | 0.00 | 0.00 | 0.00 | 42 | 1015.6 |
| 20260508054603 | 70 | 205 | 4.0 | 9.0 | 0.00 | 0.00 | 0.00 | 41 | 1015.6 |